| time (UTC) | temp F | wind direction | speed MPH | gust MPH | rain 1hr in | rain 24hr in | rain mn in | humidity % | barometer mb |
| 20260905214037 | 90 | 86 | 8.0 | 13.0 | 0.00 | 0.00 | 0.00 | 25 | 1016.3 |
| 20260905213538 | 90 | 67 | 3.0 | 16.0 | 0.00 | 0.00 | 0.00 | 27 | 1016.3 |
| 20260905213054 | 90 | 83 | 10.0 | 16.0 | 0.00 | 0.00 | 0.00 | 24 | 1016.5 |
| 20260905212538 | 91 | 90 | 9.0 | 16.0 | 0.00 | 0.00 | 0.00 | 24 | 1016.5 |
| 20260905212038 | 91 | 77 | 9.0 | 15.0 | 0.00 | 0.00 | 0.00 | 23 | 1016.5 |
| 20260905211559 | 91 | 73 | 6.0 | 15.0 | 0.00 | 0.00 | 0.00 | 24 | 1016.6 |
| 20260905211038 | 91 | 119 | 5.0 | 12.0 | 0.00 | 0.00 | 0.00 | 22 | 1016.5 |
| 20260905210538 | 91 | 85 | 5.0 | 14.0 | 0.00 | 0.00 | 0.00 | 26 | 1016.6 |
| 20260905210106 | 91 | 123 | 5.0 | 16.0 | 0.00 | 0.00 | 0.00 | 23 | 1016.6 |
| 20260905205539 | 91 | 69 | 10.0 | 16.0 | 0.00 | 0.00 | 0.00 | 23 | 1016.7 |
| 20260905205040 | 91 | 328 | 8.0 | 16.0 | 0.00 | 0.00 | 0.00 | 22 | 1016.7 |
| 20260905204640 | 91 | 85 | 9.0 | 17.0 | 0.00 | 0.00 | 0.00 | 21 | 1016.8 |
| 20260905204038 | 91 | 65 | 9.0 | 17.0 | 0.00 | 0.00 | 0.00 | 24 | 1016.7 |
| 20260905203537 | 91 | 61 | 7.0 | 13.0 | 0.00 | 0.00 | 0.00 | 23 | 1016.8 |
| 20260905203108 | 91 | 98 | 7.0 | 13.0 | 0.00 | 0.00 | 0.00 | 23 | 1016.8 |
| 20260905202539 | 91 | 52 | 6.0 | 13.0 | 0.00 | 0.00 | 0.00 | 21 | 1016.9 |
| 20260905202038 | 91 | 63 | 7.0 | 13.0 | 0.00 | 0.00 | 0.00 | 21 | 1017.0 |
| 20260905201558 | 91 | 52 | 8.0 | 13.0 | 0.00 | 0.00 | 0.00 | 21 | 1017.0 |
| 20260905201037 | 91 | 50 | 6.0 | 15.0 | 0.00 | 0.00 | 0.00 | 22 | 1017.0 |
| 20260905200538 | 91 | 89 | 5.0 | 16.0 | 0.00 | 0.00 | 0.00 | 22 | 1017.1 |
| 20260905200105 | 91 | 88 | 10.0 | 16.0 | 0.00 | 0.00 | 0.00 | 20 | 1017.2 |
| 20260905195537 | 91 | 80 | 7.0 | 15.0 | 0.00 | 0.00 | 0.00 | 24 | 1017.3 |
| 20260905195038 | 91 | 88 | 9.0 | 15.0 | 0.00 | 0.00 | 0.00 | 21 | 1017.3 |
| 20260905194553 | 91 | 79 | 4.0 | 18.0 | 0.00 | 0.00 | 0.00 | 21 | 1017.3 |
| 20260905194038 | 92 | 18 | 7.0 | 18.0 | 0.00 | 0.00 | 0.00 | 20 | 1017.4 |
| 20260905193538 | 91 | 37 | 4.0 | 15.0 | 0.00 | 0.00 | 0.00 | 25 | 1017.3 |
| 20260905193102 | 91 | 116 | 9.0 | 16.0 | 0.00 | 0.00 | 0.00 | 21 | 1017.3 |
| 20260905192538 | 91 | 95 | 10.0 | 16.0 | 0.00 | 0.00 | 0.00 | 21 | 1017.3 |
| 20260905192039 | 91 | 27 | 5.0 | 21.0 | 0.00 | 0.00 | 0.00 | 23 | 1017.3 |
| 20260905191558 | 90 | 92 | 9.0 | 21.0 | 0.00 | 0.00 | 0.00 | 24 | 1017.4 |
| 20260905191039 | 91 | 82 | 12.0 | 21.0 | 0.00 | 0.00 | 0.00 | 22 | 1017.4 |
| 20260905190537 | 91 | 33 | 6.0 | 13.0 | 0.00 | 0.00 | 0.00 | 24 | 1017.5 |
| 20260905190056 | 91 | 20 | 7.0 | 14.0 | 0.00 | 0.00 | 0.00 | 23 | 1017.5 |
| 20260905185539 | 91 | 70 | 5.0 | 14.0 | 0.00 | 0.00 | 0.00 | 24 | 1017.5 |
| 20260905185038 | 90 | 50 | 3.0 | 8.0 | 0.00 | 0.00 | 0.00 | 26 | 1017.5 |
| 20260905184602 | 89 | 88 | 2.0 | 8.0 | 0.00 | 0.00 | 0.00 | 26 | 1017.6 |
| 20260905184038 | 89 | 79 | 1.0 | 6.0 | 0.00 | 0.00 | 0.00 | 25 | 1017.6 |
| 20260905183538 | 89 | 87 | 1.0 | 3.0 | 0.00 | 0.00 | 0.00 | 24 | 1017.6 |
| 20260905183057 | 89 | 21 | 0.0 | 4.0 | 0.00 | 0.00 | 0.00 | 23 | 1017.7 |
| 20260905182538 | 90 | 115 | 0.0 | 4.0 | 0.00 | 0.00 | 0.00 | 22 | 1017.7 |
| 20260905182038 | 90 | 0 | 0.0 | 9.0 | 0.00 | 0.00 | 0.00 | 21 | 1017.8 |
| 20260905181559 | 89 | 338 | 1.0 | 9.0 | 0.00 | 0.00 | 0.00 | 22 | 1017.9 |
| 20260905181038 | 88 | 82 | 5.0 | 9.0 | 0.00 | 0.00 | 0.00 | 21 | 1018.0 |
| 20260905180538 | 89 | 74 | 0.0 | 6.0 | 0.00 | 0.00 | 0.00 | 26 | 1018.1 |
| 20260905180056 | 89 | 0 | 2.0 | 6.0 | 0.00 | 0.00 | 0.00 | 23 | 1018.1 |
| 20260905175539 | 89 | 103 | 2.0 | 6.0 | 0.00 | 0.00 | 0.00 | 22 | 1018.1 |
| 20260905175038 | 89 | 77 | 1.0 | 4.0 | 0.00 | 0.00 | 0.00 | 23 | 1018.0 |
| 20260905174606 | 89 | 82 | 1.0 | 4.0 | 0.00 | 0.00 | 0.00 | 22 | 1018.1 |
| 20260905174038 | 90 | 280 | 0.0 | 7.0 | 0.00 | 0.00 | 0.00 | 23 | 1018.2 |
| 20260905173538 | 91 | 29 | 1.0 | 7.0 | 0.00 | 0.00 | 0.00 | 24 | 1018.2 |
| 20260905173058 | 90 | 300 | 2.0 | 7.0 | 0.00 | 0.00 | 0.00 | 20 | 1018.1 |
| 20260905172538 | 90 | 336 | 1.0 | 4.0 | 0.00 | 0.00 | 0.00 | 20 | 1018.2 |
| 20260905172038 | 89 | 306 | 0.0 | 3.0 | 0.00 | 0.00 | 0.00 | 25 | 1018.4 |
| 20260905171633 | 90 | 227 | 0.0 | 3.0 | 0.00 | 0.00 | 0.00 | 22 | 1018.3 |
| 20260905171037 | 89 | 308 | 0.0 | 3.0 | 0.00 | 0.00 | 0.00 | 23 | 1018.4 |
| 20260905170537 | 90 | 0 | 0.0 | 3.0 | 0.00 | 0.00 | 0.00 | 23 | 1018.4 |
| 20260905170104 | 89 | 342 | 0.0 | 3.0 | 0.00 | 0.00 | 0.00 | 23 | 1018.4 |
| 20260905165538 | 88 | 0 | 1.0 | 3.0 | 0.00 | 0.00 | 0.00 | 24 | 1018.4 |
| 20260905165038 | 88 | 269 | 0.0 | 3.0 | 0.00 | 0.00 | 0.00 | 25 | 1018.4 |
| 20260905164602 | 88 | 306 | 0.0 | 3.0 | 0.00 | 0.00 | 0.00 | 25 | 1018.3 |
| 20260905164037 | 87 | 0 | 0.0 | 3.0 | 0.00 | 0.00 | 0.00 | 24 | 1018.3 |
| 20260905163538 | 87 | 352 | 0.0 | 4.0 | 0.00 | 0.00 | 0.00 | 26 | 1018.3 |
| 20260905163101 | 87 | 319 | 1.0 | 4.0 | 0.00 | 0.00 | 0.00 | 25 | 1018.3 |
| 20260905162538 | 88 | 356 | 1.0 | 5.0 | 0.00 | 0.00 | 0.00 | 23 | 1018.3 |
| 20260905162037 | 87 | 0 | 1.0 | 5.0 | 0.00 | 0.00 | 0.00 | 29 | 1018.4 |
| 20260905161558 | 87 | 0 | 0.0 | 3.0 | 0.00 | 0.00 | 0.00 | 29 | 1018.4 |
| 20260905161038 | 86 | 0 | 1.0 | 4.0 | 0.00 | 0.00 | 0.00 | 26 | 1018.4 |
| 20260905160537 | 86 | 325 | 1.0 | 6.0 | 0.00 | 0.00 | 0.00 | 27 | 1018.4 |
| 20260905160107 | 85 | 359 | 1.0 | 6.0 | 0.00 | 0.00 | 0.00 | 30 | 1018.5 |
| 20260905155538 | 85 | 356 | 1.0 | 3.0 | 0.00 | 0.00 | 0.00 | 29 | 1018.4 |
| 20260905155037 | 84 | 0 | 0.0 | 3.0 | 0.00 | 0.00 | 0.00 | 29 | 1018.3 |
| 20260905154643 | 83 | 41 | 1.0 | 3.0 | 0.00 | 0.00 | 0.00 | 32 | 1018.4 |
| 20260905154038 | 82 | 73 | 1.0 | 3.0 | 0.00 | 0.00 | 0.00 | 33 | 1018.3 |
| 20260905153538 | 82 | 56 | 0.0 | 3.0 | 0.00 | 0.00 | 0.00 | 34 | 1018.3 |
| 20260905153101 | 80 | 0 | 0.0 | 3.0 | 0.00 | 0.00 | 0.00 | 33 | 1018.4 |
| 20260905152538 | 80 | 33 | 1.0 | 2.0 | 0.00 | 0.00 | 0.00 | 36 | 1018.4 |
| 20260905152038 | 80 | 0 | 0.0 | 2.0 | 0.00 | 0.00 | 0.00 | 39 | 1018.4 |
| 20260905151558 | 79 | 0 | 0.0 | 1.0 | 0.00 | 0.00 | 0.00 | 38 | 1018.3 |
| 20260905151036 | 78 | 0 | 0.0 | 2.0 | 0.00 | 0.00 | 0.00 | 39 | 1018.3 |
| 20260905150538 | 77 | 0 | 0.0 | 2.0 | 0.00 | 0.00 | 0.00 | 40 | 1018.3 |
| 20260905150103 | 77 | 0 | 0.0 | 2.0 | 0.00 | 0.00 | 0.00 | 38 | 1018.3 |
| 20260905145538 | 76 | 0 | 0.0 | 2.0 | 0.00 | 0.00 | 0.00 | 44 | 1018.4 |
| 20260905145037 | 75 | 0 | 1.0 | 3.0 | 0.00 | 0.00 | 0.00 | 41 | 1018.4 |
| 20260905144609 | 73 | 0 | 0.0 | 3.0 | 0.00 | 0.00 | 0.00 | 42 | 1018.5 |
| 20260905144038 | 72 | 0 | 1.0 | 4.0 | 0.00 | 0.00 | 0.00 | 46 | 1018.4 |
| 20260905143538 | 71 | 0 | 1.0 | 4.0 | 0.00 | 0.00 | 0.00 | 48 | 1018.3 |
| 20260905143105 | 70 | 323 | 1.0 | 4.0 | 0.00 | 0.00 | 0.00 | 47 | 1018.3 |
| 20260905142537 | 69 | 332 | 1.0 | 4.0 | 0.00 | 0.00 | 0.00 | 47 | 1018.3 |
| 20260905142038 | 69 | 320 | 0.0 | 6.0 | 0.00 | 0.00 | 0.00 | 47 | 1018.2 |
| 20260905141556 | 68 | 0 | 1.0 | 6.0 | 0.00 | 0.00 | 0.00 | 48 | 1018.2 |
| 20260905141038 | 68 | 284 | 2.0 | 5.0 | 0.00 | 0.00 | 0.00 | 49 | 1018.1 |
| 20260905140537 | 67 | 0 | 1.0 | 5.0 | 0.00 | 0.00 | 0.00 | 49 | 1018.1 |
| 20260905140105 | 66 | 256 | 1.0 | 4.0 | 0.00 | 0.00 | 0.00 | 51 | 1018.1 |
| 20260905135538 | 66 | 300 | 1.0 | 4.0 | 0.00 | 0.00 | 0.00 | 52 | 1018.1 |
| 20260905135036 | 65 | 278 | 0.0 | 4.0 | 0.00 | 0.00 | 0.00 | 54 | 1018.0 |
| 20260905134607 | 65 | 272 | 2.0 | 4.0 | 0.00 | 0.00 | 0.00 | 54 | 1018.1 |
| 20260905134035 | 64 | 246 | 2.0 | 6.0 | 0.00 | 0.00 | 0.00 | 55 | 1018.1 |
| 20260905133537 | 64 | 256 | 2.0 | 6.0 | 0.00 | 0.00 | 0.00 | 57 | 1018.1 |
| 20260905133058 | 63 | 0 | 1.0 | 4.0 | 0.00 | 0.00 | 0.00 | 58 | 1018.1 |
| 20260905132539 | 63 | 233 | 2.0 | 4.0 | 0.00 | 0.00 | 0.00 | 58 | 1018.0 |
| 20260905132038 | 62 | 244 | 2.0 | 4.0 | 0.00 | 0.00 | 0.00 | 59 | 1017.9 |
| 20260905131556 | 62 | 234 | 2.0 | 4.0 | 0.00 | 0.00 | 0.00 | 59 | 1017.9 |
| 20260905131037 | 61 | 249 | 1.0 | 3.0 | 0.00 | 0.00 | 0.00 | 59 | 1017.8 |
| 20260905130541 | 61 | 0 | 1.0 | 3.0 | 0.00 | 0.00 | 0.00 | 60 | 1017.7 |
| 20260905130057 | 61 | 0 | 1.0 | 3.0 | 0.00 | 0.00 | 0.00 | 60 | 1017.8 |
| 20260905125537 | 60 | 262 | 0.0 | 3.0 | 0.00 | 0.00 | 0.00 | 61 | 1017.6 |
| 20260905125038 | 60 | 250 | 1.0 | 3.0 | 0.00 | 0.00 | 0.00 | 61 | 1017.5 |
| 20260905124559 | 60 | 249 | 1.0 | 3.0 | 0.00 | 0.00 | 0.00 | 61 | 1017.4 |
| 20260905124037 | 60 | 0 | 0.0 | 2.0 | 0.00 | 0.00 | 0.00 | 61 | 1017.4 |
| 20260905123537 | 60 | 269 | 0.0 | 4.0 | 0.00 | 0.00 | 0.00 | 61 | 1017.3 |
| 20260905123103 | 60 | 0 | 0.0 | 4.0 | 0.00 | 0.00 | 0.00 | 61 | 1017.3 |
| 20260905122536 | 60 | 271 | 1.0 | 4.0 | 0.00 | 0.00 | 0.00 | 61 | 1017.3 |
| 20260905122039 | 60 | 326 | 0.0 | 2.0 | 0.00 | 0.00 | 0.00 | 65 | 1017.2 |
| 20260905121557 | 60 | 0 | 0.0 | 3.0 | 0.00 | 0.00 | 0.00 | 65 | 1017.3 |
| 20260905121038 | 60 | 250 | 0.0 | 3.0 | 0.00 | 0.00 | 0.00 | 61 | 1017.4 |
| 20260905120538 | 60 | 257 | 1.0 | 3.0 | 0.00 | 0.00 | 0.00 | 61 | 1017.3 |
| 20260905120057 | 60 | 0 | 0.0 | 2.0 | 0.00 | 0.00 | 0.00 | 60 | 1017.3 |
| 20260905115539 | 60 | 0 | 0.0 | 2.0 | 0.00 | 0.00 | 0.00 | 60 | 1017.2 |
| 20260905115037 | 60 | 0 | 0.0 | 3.0 | 0.00 | 0.00 | 0.00 | 60 | 1017.3 |
| 20260905114609 | 60 | 0 | 0.0 | 4.0 | 0.00 | 0.00 | 0.00 | 59 | 1017.2 |
| 20260905114037 | 61 | 359 | 2.0 | 4.0 | 0.00 | 0.00 | 0.00 | 60 | 1017.3 |
| 20260905113535 | 61 | 356 | 0.0 | 2.0 | 0.00 | 0.00 | 0.00 | 60 | 1017.3 |
| 20260905113102 | 61 | 310 | 0.0 | 2.0 | 0.00 | 0.00 | 0.00 | 60 | 1017.3 |
| 20260905112538 | 61 | 0 | 0.0 | 1.0 | 0.00 | 0.00 | 0.00 | 60 | 1017.3 |
| 20260905112037 | 62 | 0 | 0.0 | 1.0 | 0.00 | 0.00 | 0.00 | 61 | 1017.5 |
| 20260905111626 | 62 | 0 | 0.0 | 4.0 | 0.00 | 0.00 | 0.00 | 59 | 1017.5 |
| 20260905111037 | 62 | 0 | 0.0 | 4.0 | 0.00 | 0.00 | 0.00 | 58 | 1017.5 |
| 20260905110537 | 63 | 0 | 1.0 | 4.0 | 0.00 | 0.00 | 0.00 | 57 | 1017.4 |
| 20260905110107 | 64 | 248 | 0.0 | 4.0 | 0.00 | 0.00 | 0.00 | 57 | 1017.4 |
| 20260905105538 | 64 | 262 | 0.0 | 4.0 | 0.00 | 0.00 | 0.00 | 56 | 1017.3 |
| 20260905105040 | 65 | 265 | 0.0 | 8.0 | 0.00 | 0.00 | 0.00 | 54 | 1017.3 |
| 20260905104616 | 65 | 15 | 2.0 | 9.0 | 0.00 | 0.00 | 0.00 | 54 | 1017.1 |
| 20260905104038 | 65 | 51 | 4.0 | 9.0 | 0.00 | 0.00 | 0.00 | 55 | 1017.0 |
| 20260905103539 | 64 | 40 | 4.0 | 9.0 | 0.00 | 0.00 | 0.00 | 54 | 1017.1 |
| 20260905103059 | 64 | 29 | 2.0 | 9.0 | 0.00 | 0.00 | 0.00 | 54 | 1017.1 |
| 20260905102535 | 63 | 29 | 4.0 | 8.0 | 0.00 | 0.00 | 0.00 | 55 | 1017.1 |
| 20260905102038 | 63 | 37 | 4.0 | 8.0 | 0.00 | 0.00 | 0.00 | 54 | 1017.1 |
| 20260905101600 | 63 | 15 | 3.0 | 5.0 | 0.00 | 0.00 | 0.00 | 53 | 1017.1 |
| 20260905101037 | 63 | 19 | 2.0 | 5.0 | 0.00 | 0.00 | 0.00 | 53 | 1017.1 |
| 20260905100537 | 64 | 45 | 3.0 | 5.0 | 0.00 | 0.00 | 0.00 | 53 | 1017.1 |
| 20260905100059 | 64 | 23 | 3.0 | 9.0 | 0.00 | 0.00 | 0.00 | 51 | 1017.1 |
| 20260905095537 | 65 | 2 | 3.0 | 9.0 | 0.00 | 0.00 | 0.00 | 51 | 1017.1 |
| 20260905095037 | 64 | 60 | 5.0 | 9.0 | 0.00 | 0.00 | 0.00 | 51 | 1017.0 |
| 20260905094702 | 64 | 56 | 3.0 | 9.0 | 0.00 | 0.00 | 0.00 | 54 | 1017.1 |
| 20260905094038 | 65 | 68 | 5.0 | 9.0 | 0.00 | 0.00 | 0.00 | 54 | 1017.1 |
| 20260905093535 | 65 | 50 | 5.0 | 9.0 | 0.00 | 0.00 | 0.00 | 54 | 1016.9 |
| 20260905093059 | 64 | 32 | 3.0 | 6.0 | 0.00 | 0.00 | 0.00 | 52 | 1016.7 |
| 20260905092537 | 64 | 33 | 4.0 | 6.0 | 0.00 | 0.00 | 0.00 | 56 | 1016.8 |
| 20260905092038 | 63 | 53 | 2.0 | 5.0 | 0.00 | 0.00 | 0.00 | 56 | 1016.7 |
| 20260905091602 | 63 | 11 | 1.0 | 4.0 | 0.00 | 0.00 | 0.00 | 58 | 1016.7 |
| 20260905091037 | 63 | 13 | 3.0 | 4.0 | 0.00 | 0.00 | 0.00 | 59 | 1016.7 |
| 20260905090537 | 63 | 15 | 0.0 | 4.0 | 0.00 | 0.00 | 0.00 | 59 | 1016.6 |
| 20260905090059 | 63 | 312 | 0.0 | 4.0 | 0.00 | 0.00 | 0.00 | 59 | 1016.6 |
| 20260905085539 | 63 | 3 | 2.0 | 4.0 | 0.00 | 0.00 | 0.00 | 60 | 1016.7 |
| 20260905085038 | 63 | 22 | 2.0 | 4.0 | 0.00 | 0.00 | 0.00 | 61 | 1016.6 |
| 20260905084605 | 63 | 347 | 0.0 | 2.0 | 0.00 | 0.00 | 0.00 | 60 | 1016.6 |
| 20260905084040 | 63 | 0 | 0.0 | 2.0 | 0.00 | 0.00 | 0.00 | 60 | 1016.5 |
| 20260905083537 | 63 | 342 | 1.0 | 3.0 | 0.00 | 0.00 | 0.00 | 59 | 1016.6 |
| 20260905083052 | 63 | 342 | 1.0 | 4.0 | 0.00 | 0.00 | 0.00 | 57 | 1016.6 |
| 20260905082537 | 63 | 356 | 0.0 | 4.0 | 0.00 | 0.00 | 0.00 | 55 | 1016.6 |
| 20260905082035 | 63 | 324 | 0.0 | 3.0 | 0.00 | 0.00 | 0.00 | 57 | 1016.6 |
| 20260905081554 | 63 | 342 | 0.0 | 3.0 | 0.00 | 0.00 | 0.00 | 59 | 1016.6 |
| 20260905081034 | 63 | 306 | 0.0 | 3.0 | 0.00 | 0.00 | 0.00 | 58 | 1016.6 |
| 20260905080534 | 63 | 0 | 0.0 | 4.0 | 0.00 | 0.00 | 0.00 | 59 | 1016.6 |
| 20260905080113 | 63 | 312 | 0.0 | 4.0 | 0.00 | 0.00 | 0.00 | 57 | 1016.6 |
| 20260905075535 | 64 | 323 | 1.0 | 4.0 | 0.00 | 0.00 | 0.00 | 57 | 1016.6 |
| 20260905075040 | 64 | 0 | 1.0 | 3.0 | 0.00 | 0.00 | 0.00 | 57 | 1016.7 |
| 20260905074602 | 64 | 285 | 1.0 | 4.0 | 0.00 | 0.00 | 0.00 | 57 | 1016.7 |
| 20260905074038 | 64 | 0 | 0.0 | 4.0 | 0.00 | 0.00 | 0.00 | 56 | 1016.7 |
| 20260905073537 | 65 | 0 | 0.0 | 3.0 | 0.00 | 0.00 | 0.00 | 58 | 1016.6 |
| 20260905073105 | 65 | 0 | 0.0 | 1.0 | 0.00 | 0.00 | 0.00 | 60 | 1016.4 |
| 20260905072534 | 65 | 0 | 0.0 | 2.0 | 0.00 | 0.00 | 0.00 | 59 | 1016.3 |
| 20260905072037 | 65 | 0 | 0.0 | 2.0 | 0.00 | 0.00 | 0.00 | 59 | 1016.3 |
| 20260905071556 | 66 | 0 | 0.0 | 2.0 | 0.00 | 0.00 | 0.00 | 58 | 1016.4 |
| 20260905071034 | 66 | 0 | 0.0 | 2.0 | 0.00 | 0.00 | 0.00 | 57 | 1016.4 |
| 20260905070536 | 67 | 0 | 0.0 | 2.0 | 0.00 | 0.00 | 0.00 | 55 | 1016.4 |
| 20260905070100 | 67 | 0 | 0.0 | 2.0 | 0.00 | 0.00 | 0.00 | 54 | 1016.3 |
| 20260905065535 | 68 | 0 | 0.0 | 2.0 | 0.00 | 0.00 | 0.00 | 53 | 1016.4 |
| 20260905065035 | 68 | 0 | 0.0 | 3.0 | 0.00 | 0.00 | 0.00 | 51 | 1016.4 |
| 20260905064558 | 69 | 352 | 0.0 | 3.0 | 0.00 | 0.00 | 0.00 | 52 | 1016.4 |
| 20260905064038 | 69 | 357 | 0.0 | 4.0 | 0.00 | 0.00 | 0.00 | 49 | 1016.3 |
| 20260905063536 | 69 | 40 | 0.0 | 5.0 | 0.00 | 0.00 | 0.00 | 50 | 1016.3 |
| 20260905063053 | 68 | 49 | 2.0 | 5.0 | 0.00 | 0.00 | 0.00 | 49 | 1016.3 |
| 20260905062538 | 68 | 19 | 3.0 | 5.0 | 0.00 | 0.00 | 0.00 | 50 | 1016.3 |
| 20260905062035 | 68 | 17 | 2.0 | 5.0 | 0.00 | 0.00 | 0.00 | 51 | 1016.3 |
| 20260905061600 | 69 | 12 | 3.0 | 5.0 | 0.00 | 0.00 | 0.00 | 51 | 1016.3 |
| 20260905061038 | 69 | 352 | 1.0 | 4.0 | 0.00 | 0.00 | 0.00 | 49 | 1016.4 |
| 20260905060536 | 70 | 28 | 2.0 | 4.0 | 0.00 | 0.00 | 0.00 | 49 | 1016.4 |
| 20260905060105 | 70 | 0 | 1.0 | 4.0 | 0.00 | 0.00 | 0.00 | 48 | 1016.4 |
| 20260905055536 | 71 | 0 | 0.0 | 2.0 | 0.00 | 0.00 | 0.00 | 47 | 1016.5 |
| 20260905055037 | 71 | 0 | 0.0 | 2.0 | 0.00 | 0.00 | 0.00 | 47 | 1016.5 |
| 20260905054605 | 71 | 2 | 1.0 | 5.0 | 0.00 | 0.00 | 0.00 | 45 | 1016.4 |
| 20260905054036 | 72 | 0 | 0.0 | 5.0 | 0.00 | 0.00 | 0.00 | 46 | 1016.4 |
| 20260905053536 | 72 | 24 | 1.0 | 4.0 | 0.00 | 0.00 | 0.00 | 47 | 1016.4 |
| 20260905053057 | 72 | 24 | 1.0 | 4.0 | 0.00 | 0.00 | 0.00 | 47 | 1016.3 |
| 20260905052538 | 72 | 0 | 0.0 | 2.0 | 0.00 | 0.00 | 0.00 | 46 | 1016.4 |
| 20260905052037 | 72 | 5 | 0.0 | 2.0 | 0.00 | 0.00 | 0.00 | 50 | 1016.4 |
| 20260905051607 | 72 | 352 | 0.0 | 5.0 | 0.00 | 0.00 | 0.00 | 44 | 1016.4 |
| 20260905051037 | 72 | 0 | 0.0 | 5.0 | 0.00 | 0.00 | 0.00 | 46 | 1016.4 |
| 20260905050537 | 72 | 10 | 2.0 | 6.0 | 0.00 | 0.00 | 0.00 | 46 | 1016.4 |
| 20260905050106 | 73 | 37 | 2.0 | 6.0 | 0.00 | 0.00 | 0.00 | 48 | 1016.5 |
| 20260905045539 | 73 | 339 | 1.0 | 5.0 | 0.00 | 0.00 | 0.00 | 45 | 1016.6 |
| 20260905045037 | 73 | 228 | 1.0 | 5.0 | 0.00 | 0.00 | 0.00 | 45 | 1016.8 |
| 20260905044600 | 73 | 220 | 2.0 | 5.0 | 0.00 | 0.00 | 0.00 | 43 | 1016.7 |
| 20260905044036 | 73 | 66 | 1.0 | 4.0 | 0.00 | 0.00 | 0.00 | 45 | 1016.7 |
| 20260905043537 | 73 | 325 | 2.0 | 4.0 | 0.00 | 0.00 | 0.00 | 44 | 1016.5 |
| 20260905043057 | 72 | 31 | 0.0 | 2.0 | 0.00 | 0.00 | 0.00 | 46 | 1016.6 |
| 20260905042538 | 72 | 331 | 0.0 | 2.0 | 0.00 | 0.00 | 0.00 | 54 | 1016.6 |
| 20260905042037 | 72 | 331 | 0.0 | 2.0 | 0.00 | 0.00 | 0.00 | 45 | 1016.6 |
| 20260905041601 | 72 | 0 | 0.0 | 3.0 | 0.00 | 0.00 | 0.00 | 49 | 1016.8 |
| 20260905041037 | 73 | 295 | 0.0 | 3.0 | 0.00 | 0.00 | 0.00 | 51 | 1016.7 |
| 20260905040537 | 72 | 70 | 0.0 | 2.0 | 0.00 | 0.00 | 0.00 | 44 | 1016.8 |
| 20260905040110 | 72 | 70 | 0.0 | 3.0 | 0.00 | 0.00 | 0.00 | 45 | 1016.7 |
| 20260905035537 | 72 | 70 | 0.0 | 3.0 | 0.00 | 0.00 | 0.00 | 54 | 1016.7 |
| 20260905035037 | 73 | 333 | 0.0 | 2.0 | 0.00 | 0.00 | 0.00 | 56 | 1016.6 |
| 20260905034558 | 73 | 352 | 0.0 | 2.0 | 0.00 | 0.00 | 0.00 | 50 | 1016.6 |
| 20260905034037 | 74 | 0 | 0.0 | 2.0 | 0.00 | 0.00 | 0.00 | 48 | 1016.6 |
| 20260905033537 | 75 | 0 | 0.0 | 2.0 | 0.00 | 0.00 | 0.00 | 45 | 1016.6 |
| 20260905033108 | 75 | 0 | 0.0 | 2.0 | 0.00 | 0.00 | 0.00 | 45 | 1016.6 |
| 20260905032537 | 75 | 0 | 0.0 | 2.0 | 0.00 | 0.00 | 0.00 | 40 | 1016.5 |
| 20260905032037 | 76 | 65 | 0.0 | 1.0 | 0.00 | 0.00 | 0.00 | 40 | 1016.5 |
| 20260905031608 | 76 | 0 | 0.0 | 3.0 | 0.00 | 0.00 | 0.00 | 39 | 1016.4 |
| 20260905031038 | 76 | 0 | 0.0 | 3.0 | 0.00 | 0.00 | 0.00 | 38 | 1016.4 |
| 20260905030537 | 76 | 67 | 1.0 | 4.0 | 0.00 | 0.00 | 0.00 | 37 | 1016.3 |
| 20260905030109 | 77 | 65 | 1.0 | 4.0 | 0.00 | 0.00 | 0.00 | 39 | 1016.4 |
| 20260905025541 | 77 | 75 | 2.0 | 4.0 | 0.00 | 0.00 | 0.00 | 39 | 1016.3 |
| 20260905025034 | 77 | 66 | 2.0 | 6.0 | 0.00 | 0.00 | 0.00 | 41 | 1016.3 |
| 20260905024607 | 77 | 79 | 2.0 | 6.0 | 0.00 | 0.00 | 0.00 | 38 | 1016.2 |
| 20260905024040 | 77 | 84 | 2.0 | 4.0 | 0.00 | 0.00 | 0.00 | 38 | 1016.1 |
| 20260905023537 | 77 | 87 | 2.0 | 5.0 | 0.00 | 0.00 | 0.00 | 36 | 1016.0 |
| 20260905023101 | 78 | 86 | 2.0 | 5.0 | 0.00 | 0.00 | 0.00 | 37 | 1015.9 |
| 20260905022536 | 78 | 82 | 2.0 | 6.0 | 0.00 | 0.00 | 0.00 | 36 | 1015.9 |
| 20260905022037 | 78 | 85 | 2.0 | 6.0 | 0.00 | 0.00 | 0.00 | 36 | 1015.8 |
| 20260905021611 | 78 | 75 | 2.0 | 4.0 | 0.00 | 0.00 | 0.00 | 37 | 1015.8 |
| 20260905021036 | 79 | 79 | 2.0 | 4.0 | 0.00 | 0.00 | 0.00 | 35 | 1015.7 |
| 20260905020538 | 79 | 82 | 3.0 | 6.0 | 0.00 | 0.00 | 0.00 | 35 | 1015.7 |
| 20260905020058 | 79 | 83 | 3.0 | 7.0 | 0.00 | 0.00 | 0.00 | 34 | 1015.6 |
| 20260905015538 | 79 | 71 | 2.0 | 7.0 | 0.00 | 0.00 | 0.00 | 34 | 1015.6 |
| 20260905015039 | 80 | 80 | 3.0 | 6.0 | 0.00 | 0.00 | 0.00 | 35 | 1015.6 |
| 20260905014603 | 80 | 86 | 3.0 | 4.0 | 0.00 | 0.00 | 0.00 | 32 | 1015.5 |
| 20260905014039 | 81 | 88 | 1.0 | 4.0 | 0.00 | 0.00 | 0.00 | 31 | 1015.5 |
| 20260905013538 | 81 | 100 | 1.0 | 4.0 | 0.00 | 0.00 | 0.00 | 31 | 1015.4 |
| 20260905013122 | 81 | 107 | 1.0 | 5.0 | 0.00 | 0.00 | 0.00 | 30 | 1015.4 |
| 20260905012539 | 82 | 347 | 2.0 | 5.0 | 0.00 | 0.00 | 0.00 | 30 | 1015.4 |
| 20260905012038 | 82 | 347 | 2.0 | 5.0 | 0.00 | 0.00 | 0.00 | 29 | 1015.4 |
| 20260905011610 | 83 | 347 | 2.0 | 5.0 | 0.00 | 0.00 | 0.00 | 28 | 1015.5 |
| 20260905011039 | 83 | 347 | 2.0 | 6.0 | 0.00 | 0.00 | 0.00 | 29 | 1015.3 |
| 20260905010539 | 83 | 347 | 2.0 | 7.0 | 0.00 | 0.00 | 0.00 | 28 | 1015.3 |
| 20260905010111 | 84 | 347 | 3.0 | 10.0 | 0.00 | 0.00 | 0.00 | 28 | 1015.4 |
| 20260905005538 | 84 | 76 | 4.0 | 10.0 | 0.00 | 0.00 | 0.00 | 28 | 1015.2 |
| 20260905005040 | 85 | 90 | 4.0 | 10.0 | 0.00 | 0.00 | 0.00 | 27 | 1015.3 |
| 20260905004602 | 85 | 113 | 5.0 | 10.0 | 0.00 | 0.00 | 0.00 | 25 | 1015.2 |
| 20260905004038 | 86 | 101 | 4.0 | 10.0 | 0.00 | 0.00 | 0.00 | 25 | 1015.2 |
| 20260905003539 | 86 | 81 | 4.0 | 9.0 | 0.00 | 0.00 | 0.00 | 24 | 1015.1 |
| 20260905003102 | 86 | 116 | 3.0 | 8.0 | 0.00 | 0.00 | 0.00 | 23 | 1015.0 |
| 20260905002539 | 87 | 100 | 2.0 | 8.0 | 0.00 | 0.00 | 0.00 | 23 | 1015.0 |
| 20260905002042 | 87 | 73 | 3.0 | 9.0 | 0.00 | 0.00 | 0.00 | 22 | 1015.1 |
| 20260905001559 | 87 | 113 | 4.0 | 12.0 | 0.00 | 0.00 | 0.00 | 22 | 1015.0 |
| 20260905001038 | 87 | 91 | 4.0 | 13.0 | 0.00 | 0.00 | 0.00 | 24 | 1015.1 |
| 20260905000539 | 87 | 66 | 6.0 | 13.0 | 0.00 | 0.00 | 0.00 | 24 | 1015.1 |
| 20260905000059 | 87 | 92 | 5.0 | 13.0 | 0.00 | 0.00 | 0.00 | 25 | 1015.1 |
| 20260904235538 | 87 | 81 | 7.0 | 14.0 | 0.00 | 0.00 | 0.00 | 22 | 1015.1 |
| 20260904235038 | 88 | 137 | 8.0 | 14.0 | 0.00 | 0.00 | 0.00 | 23 | 1015.1 |
| 20260904234555 | 88 | 88 | 9.0 | 16.0 | 0.00 | 0.00 | 0.00 | 23 | 1015.0 |
| 20260904234039 | 88 | 80 | 9.0 | 16.0 | 0.00 | 0.00 | 0.00 | 25 | 1015.0 |
| 20260904233543 | 88 | 84 | 8.0 | 16.0 | 0.00 | 0.00 | 0.00 | 23 | 1014.9 |
| 20260904233056 | 88 | 71 | 8.0 | 18.0 | 0.00 | 0.00 | 0.00 | 24 | 1014.9 |
| 20260904232539 | 88 | 87 | 11.0 | 18.0 | 0.00 | 0.00 | 0.00 | 23 | 1014.9 |
| 20260904232039 | 88 | 85 | 10.0 | 17.0 | 0.00 | 0.00 | 0.00 | 23 | 1014.9 |
| 20260904231557 | 88 | 93 | 8.0 | 12.0 | 0.00 | 0.00 | 0.00 | 24 | 1014.9 |
| 20260904231039 | 89 | 71 | 8.0 | 12.0 | 0.00 | 0.00 | 0.00 | 24 | 1014.9 |
| 20260904230539 | 89 | 85 | 5.0 | 11.0 | 0.00 | 0.00 | 0.00 | 27 | 1015.0 |
| 20260904230109 | 89 | 110 | 5.0 | 12.0 | 0.00 | 0.00 | 0.00 | 24 | 1015.0 |
| 20260904225539 | 89 | 88 | 4.0 | 16.0 | 0.00 | 0.00 | 0.00 | 22 | 1014.9 |
| 20260904225038 | 89 | 93 | 8.0 | 20.0 | 0.00 | 0.00 | 0.00 | 23 | 1014.9 |
| 20260904224605 | 89 | 83 | 11.0 | 20.0 | 0.00 | 0.00 | 0.00 | 23 | 1014.9 |
| 20260904224039 | 89 | 100 | 9.0 | 17.0 | 0.00 | 0.00 | 0.00 | 21 | 1014.9 |
| 20260904223538 | 89 | 81 | 5.0 | 13.0 | 0.00 | 0.00 | 0.00 | 19 | 1014.9 |
| 20260904223109 | 89 | 79 | 7.0 | 13.0 | 0.00 | 0.00 | 0.00 | 21 | 1015.0 |
| 20260904222539 | 90 | 123 | 7.0 | 13.0 | 0.00 | 0.00 | 0.00 | 19 | 1015.0 |
| 20260904222041 | 89 | 117 | 3.0 | 14.0 | 0.00 | 0.00 | 0.00 | 19 | 1014.9 |
| 20260904221627 | 89 | 97 | 5.0 | 14.0 | 0.00 | 0.00 | 0.00 | 20 | 1015.0 |
| 20260904221039 | 89 | 69 | 7.0 | 14.0 | 0.00 | 0.00 | 0.00 | 21 | 1014.9 |
| 20260904220539 | 89 | 88 | 7.0 | 14.0 | 0.00 | 0.00 | 0.00 | 22 | 1015.1 |
| 20260904220059 | 89 | 54 | 5.0 | 16.0 | 0.00 | 0.00 | 0.00 | 19 | 1015.1 |
| 20260904215540 | 89 | 92 | 7.0 | 16.0 | 0.00 | 0.00 | 0.00 | 20 | 1015.2 |
| 20260904215038 | 89 | 59 | 10.0 | 15.0 | 0.00 | 0.00 | 0.00 | 20 | 1015.2 |
| 20260904214556 | 89 | 85 | 9.0 | 13.0 | 0.00 | 0.00 | 0.00 | 21 | 1015.2 |